When you browse on this site, cookies collect data to enhance your experience and personalize the content and advertising you see.
Visit our Privacy Policy to learn more. By continuing to use the site, you agree to this use of cookies and data.

Hourly Weather Ekatino

Today, 9 July, Thursday

Time Temperature Precipitation Wind Pressure Humidity
00:00 +12°C° 0 mm 2 mps 740 mmHg 96%
01:00 +10°C° 0 mm 2 mps 740 mmHg 96%
02:00 +11°C° 0 mm 1 mps 740 mmHg 98%
03:00 +12°C° 0 mm 1 mps 740 mmHg 97%
04:00 +12°C° 0 mm 1 mps 740 mmHg 96%
05:00 +12°C° 0 mm 1 mps 740 mmHg 95%
06:00 +14°C° 0.3 mm 1 mps 740 mmHg 91%
07:00 +15°C° 0.3 mm 1 mps 740 mmHg 87%
08:00 +18°C° 0.3 mm 1 mps 741 mmHg 83%
09:00 +17°C° 0.4 mm 2 mps 741 mmHg 75%
10:00 +18°C° 0.4 mm 2 mps 741 mmHg 68%
11:00 +19°C° 0.4 mm 3 mps 741 mmHg 61%
12:00 +19°C° 0.6 mm 3 mps 741 mmHg 65%
13:00 +19°C° 0.6 mm 3 mps 741 mmHg 70%
14:00 +19°C° 0.6 mm 3 mps 742 mmHg 75%
15:00 +18°C° 0.5 mm 3 mps 742 mmHg 76%
16:00 +18°C° 0.5 mm 3 mps 742 mmHg 77%
17:00 +18°C° 0.5 mm 3 mps 742 mmHg 78%
18:00 +16°C° 0.1 mm 2 mps 742 mmHg 81%
19:00 +15°C° 0.1 mm 2 mps 742 mmHg 85%
20:00 +14°C° 0.1 mm 1 mps 742 mmHg 88%
21:00 +13°C° 0 mm 1 mps 743 mmHg 89%
22:00 +12°C° 0 mm 2 mps 744 mmHg 90%
23:00 +10°C° 0 mm 2 mps 744 mmHg 90%

Tomorrow, 10 July, Friday

Time Temperature Precipitation Wind Pressure Humidity
00:00 +9°C° 0 mm 2 mps 744 mmHg 91%
01:00 +9°C° 0 mm 2 mps 745 mmHg 91%
02:00 +8°C° 0 mm 2 mps 745 mmHg 91%
03:00 +9°C° 0 mm 2 mps 745 mmHg 90%
04:00 +9°C° 0 mm 2 mps 745 mmHg 88%
05:00 +10°C° 0 mm 2 mps 745 mmHg 87%
06:00 +13°C° 0 mm 2 mps 746 mmHg 79%
07:00 +15°C° 0 mm 2 mps 746 mmHg 71%
08:00 +18°C° 0 mm 3 mps 746 mmHg 63%
09:00 +19°C° 0 mm 3 mps 746 mmHg 59%
10:00 +20°C° 0 mm 3 mps 746 mmHg 54%
11:00 +21°C° 0 mm 3 mps 746 mmHg 50%
12:00 +21°C° 0 mm 4 mps 746 mmHg 49%
13:00 +22°C° 0 mm 4 mps 746 mmHg 48%
14:00 +22°C° 0 mm 4 mps 745 mmHg 47%
15:00 +20°C° 0.2 mm 3 mps 745 mmHg 60%
16:00 +18°C° 0.2 mm 2 mps 745 mmHg 72%
17:00 +15°C° 0.2 mm 2 mps 745 mmHg 85%
18:00 +15°C° 0.2 mm 2 mps 744 mmHg 87%
19:00 +14°C° 0.2 mm 3 mps 744 mmHg 89%
20:00 +14°C° 0.2 mm 3 mps 744 mmHg 91%
21:00 +14°C° 0.3 mm 3 mps 744 mmHg 93%
22:00 +14°C° 0.3 mm 4 mps 744 mmHg 94%
23:00 +14°C° 0.3 mm 4 mps 743 mmHg 96%

Day after tomorrow, 11 July, Saturday

Time Temperature Precipitation Wind Pressure Humidity
00:00 +15°C° 0 mm 4 mps 743 mmHg 96%
01:00 +15°C° 0 mm 4 mps 743 mmHg 96%
02:00 +17°C° 0 mm 3 mps 743 mmHg 97%
03:00 +17°C° 0 mm 3 mps 743 mmHg 96%
04:00 +17°C° 0 mm 3 mps 744 mmHg 96%
05:00 +18°C° 0 mm 3 mps 744 mmHg 96%
06:00 +18°C° 0 mm 3 mps 744 mmHg 92%
07:00 +19°C° 0 mm 3 mps 744 mmHg 88%
08:00 +20°C° 0 mm 3 mps 744 mmHg 85%
09:00 +21°C° 0 mm 4 mps 744 mmHg 81%
10:00 +22°C° 0 mm 4 mps 744 mmHg 77%
11:00 +23°C° 0 mm 4 mps 744 mmHg 74%
12:00 +25°C° 0.3 mm 4 mps 744 mmHg 73%
13:00 +25°C° 0.3 mm 5 mps 744 mmHg 73%
14:00 +26°C° 0.3 mm 5 mps 743 mmHg 72%
15:00 +26°C° 0.7 mm 5 mps 743 mmHg 78%
16:00 +25°C° 0.7 mm 4 mps 743 mmHg 84%
17:00 +25°C° 0.7 mm 4 mps 743 mmHg 90%
18:00 +22°C° 0.3 mm 3 mps 744 mmHg 92%
19:00 +21°C° 0.3 mm 3 mps 744 mmHg 94%
20:00 +20°C° 0.3 mm 2 mps 744 mmHg 96%
21:00 +20°C° 0 mm 2 mps 744 mmHg 96%
22:00 +19°C° 0 mm 2 mps 745 mmHg 96%
23:00 +19°C° 0 mm 1 mps 745 mmHg 97%

12 July, Sunday

Time Temperature Precipitation Wind Pressure Humidity
00:00 +18°C° 0.2 mm 1 mps 745 mmHg 96%
01:00 +18°C° 0.2 mm 1 mps 745 mmHg 96%
02:00 +16°C° 0.2 mm 1 mps 745 mmHg 96%
03:00 +16°C° 0 mm 1 mps 745 mmHg 95%
04:00 +15°C° 0 mm 1 mps 745 mmHg 94%
05:00 +15°C° 0 mm 1 mps 745 mmHg 94%
06:00 +15°C° 0.1 mm 1 mps 746 mmHg 94%
07:00 +15°C° 0.1 mm 1 mps 746 mmHg 93%
08:00 +15°C° 0.1 mm 1 mps 746 mmHg 93%
09:00 +18°C° 0 mm 1 mps 746 mmHg 85%
10:00 +19°C° 0 mm 1 mps 746 mmHg 78%
11:00 +20°C° 0 mm 1 mps 746 mmHg 70%
12:00 +19°C° 0 mm 2 mps 746 mmHg 73%
13:00 +18°C° 0 mm 2 mps 746 mmHg 76%
14:00 +17°C° 0 mm 2 mps 746 mmHg 79%
15:00 +17°C° 0 mm 2 mps 746 mmHg 77%
16:00 +17°C° 0 mm 2 mps 746 mmHg 74%
17:00 +17°C° 0 mm 2 mps 746 mmHg 72%
18:00 +16°C° 0 mm 3 mps 746 mmHg 74%
19:00 +16°C° 0 mm 3 mps 746 mmHg 77%
20:00 +14°C° 0 mm 3 mps 746 mmHg 80%
21:00 +13°C° 0 mm 3 mps 746 mmHg 82%
22:00 +13°C° 0 mm 3 mps 746 mmHg 84%
23:00 +13°C° 0 mm 3 mps 746 mmHg 85%

13 July, Monday

Time Temperature Precipitation Wind Pressure Humidity
00:00 +12°C° 0 mm 3 mps 745 mmHg 85%
01:00 +12°C° 0 mm 3 mps 745 mmHg 85%
02:00 +12°C° 0 mm 3 mps 745 mmHg 85%
03:00 +12°C° 0 mm 3 mps 745 mmHg 84%
04:00 +13°C° 0 mm 3 mps 745 mmHg 84%
05:00 +13°C° 0 mm 3 mps 745 mmHg 83%
06:00 +14°C° 0 mm 3 mps 745 mmHg 82%
07:00 +14°C° 0 mm 3 mps 745 mmHg 81%
08:00 +16°C° 0 mm 3 mps 745 mmHg 80%
09:00 +16°C° 0.3 mm 3 mps 744 mmHg 82%
10:00 +16°C° 0.3 mm 2 mps 744 mmHg 85%
11:00 +16°C° 0.3 mm 2 mps 744 mmHg 87%
12:00 +16°C° 0.3 mm 2 mps 744 mmHg 89%
13:00 +16°C° 0.3 mm 3 mps 744 mmHg 92%
14:00 +16°C° 0.3 mm 3 mps 743 mmHg 94%
15:00 +17°C° 0 mm 3 mps 743 mmHg 91%
16:00 +17°C° 0 mm 3 mps 743 mmHg 88%
17:00 +18°C° 0 mm 3 mps 742 mmHg 85%
18:00 +17°C° 0 mm 3 mps 742 mmHg 86%
19:00 +17°C° 0 mm 3 mps 742 mmHg 87%
20:00 +17°C° 0 mm 3 mps 742 mmHg 88%
21:00 +16°C° 0 mm 3 mps 742 mmHg 90%
22:00 +16°C° 0 mm 3 mps 742 mmHg 92%
23:00 +14°C° 0 mm 3 mps 741 mmHg 95%

14 July, Tuesday

Time Temperature Precipitation Wind Pressure Humidity
00:00 +16°C° 0 mm 3 mps 741 mmHg 93%
01:00 +16°C° 0 mm 3 mps 741 mmHg 91%
02:00 +16°C° 0 mm 3 mps 741 mmHg 90%
03:00 +16°C° 0.2 mm 3 mps 741 mmHg 92%
04:00 +16°C° 0.2 mm 3 mps 740 mmHg 94%
05:00 +16°C° 0.2 mm 3 mps 740 mmHg 96%
06:00 +16°C° 0.3 mm 3 mps 740 mmHg 96%
07:00 +15°C° 0.3 mm 4 mps 739 mmHg 96%
08:00 +15°C° 0.3 mm 4 mps 739 mmHg 96%
09:00 +15°C° 0.1 mm 4 mps 739 mmHg 95%
10:00 +17°C° 0.1 mm 4 mps 739 mmHg 95%
11:00 +17°C° 0.1 mm 4 mps 738 mmHg 94%
12:00 +18°C° 1 mm 4 mps 738 mmHg 95%
13:00 +18°C° 1 mm 4 mps 738 mmHg 96%
14:00 +18°C° 1 mm 4 mps 737 mmHg 97%
15:00 +18°C° 0.3 mm 4 mps 737 mmHg 97%
16:00 +19°C° 0.3 mm 4 mps 736 mmHg 96%
17:00 +19°C° 0.3 mm 4 mps 736 mmHg 96%
18:00 +19°C° 0.9 mm 3 mps 736 mmHg 97%
19:00 +18°C° 0.9 mm 3 mps 735 mmHg 97%
20:00 +18°C° 0.9 mm 3 mps 735 mmHg 98%
21:00 +18°C° 0.7 mm 3 mps 735 mmHg 98%
22:00 +18°C° 0.7 mm 2 mps 735 mmHg 99%
23:00 +18°C° 0.7 mm 2 mps 735 mmHg 99%
Show more